N1SU-13 Weather Reports


Display with metric or nautical units.
time (UTC)temp
F
wind
direction
speed
MPH
gust
MPH
rain 1hr
in
rain 24hr
in
rain mn
in
humidity
%
barometer
mb
20260510122443 48 0.0 0.0 0.00 0.00 0.00 89 1016.7
20260510121330 49 0.0 0.0 0.00 0.00 0.00 90 1016.7
20260510120354 49 0.0 0.0 0.00 0.00 0.00 89 1016.4
20260510115307 49 0.0 0.0 0.00 0.00 0.00 89 1016.3
20260510114310 49 0.0 0.0 0.00 0.00 0.00 89 1016.8
20260510113308 49 0.0 0.0 0.00 0.00 0.00 88 1016.7
20260510112143 49 0.0 0.0 0.00 0.00 0.00 88 1016.5
20260510111214 49 0.0 0.0 0.00 0.00 0.00 87 1016.5
20260510110222 50 0.0 0.0 0.00 0.00 0.00 88 1016.5
20260510105129 50 0.0 0.0 0.00 0.00 0.00 87 1016.4
20260510104144 50 0.0 0.0 0.00 0.00 0.00 87 1016.4
20260510103029 50 0.0 0.0 0.00 0.00 0.00 87 1016.3
20260510102037 51 0.0 0.0 0.00 0.00 0.00 87 1016.2
20260510101054 51 0.0 0.0 0.00 0.00 0.00 86 1016.0
20260510100059 51 0.0 0.0 0.00 0.00 0.00 85 1015.8
20260510095106 51 0.0 0.0 0.00 0.00 0.00 85 1015.6
20260510094116 51 0.0 0.0 0.00 0.00 0.00 85 1015.6
20260510093139 51 0.0 0.0 0.00 0.00 0.00 85 1015.5
20260510092106 52 0.0 0.0 0.00 0.00 0.00 85 1015.4
20260510091008 52 0.0 0.0 0.00 0.00 0.00 84 1015.2
20260510085904 52 0.0 0.0 0.00 0.00 0.00 84 1015.2
20260510084842 52 0.0 0.0 0.00 0.00 0.00 83 1015.3
20260510083704 52 0.0 0.0 0.00 0.00 0.00 83 1015.3
20260510082706 53 0.0 0.0 0.00 0.00 0.00 82 1015.1
20260510081559 53 0.0 0.0 0.00 0.00 0.00 82 1015.1
20260510080611 53 0.0 0.0 0.00 0.00 0.00 82 1015.4
20260510075442 53 0.0 0.0 0.00 0.00 0.00 82 1015.5
20260510074522 53 0.0 0.0 0.00 0.00 0.00 81 1015.4
20260510073511 54 0.0 0.0 0.00 0.00 0.00 81 1015.3
20260510072423 54 0.0 0.0 0.00 0.00 0.00 81 1015.3
20260510071420 54 0.0 0.0 0.00 0.00 0.00 80 1015.3
20260510070456 54 0.0 0.0 0.00 0.00 0.00 79 1015.3
20260510065433 55 0.0 0.0 0.00 0.00 0.00 79 1015.4
20260510064304 55 0.0 0.0 0.00 0.00 0.00 78 1015.4
20260510063242 55 0.0 0.0 0.00 0.00 0.00 77 1015.5
20260510062319 56 0.0 0.0 0.00 0.00 0.00 77 1015.4
20260510061322 56 0.0 0.0 0.00 0.00 0.00 76 1015.2
20260510060249 56 0.0 0.0 0.00 0.00 0.00 75 1015.1
20260510055241 57 0.0 0.0 0.00 0.00 0.00 75 1015.0
20260510054317 57 0.0 0.0 0.00 0.00 0.00 75 1015.0
20260510053334 57 0.0 0.0 0.00 0.00 0.00 75 1015.1
20260510052250 57 0.0 0.0 0.00 0.00 0.00 74 1014.9
20260510051149 58 0.0 0.0 0.00 0.00 0.00 73 1014.9
20260510050016 58 0.0 0.0 0.00 0.00 0.00 73 1014.8
20260510044915 59 0.0 0.0 0.00 0.00 0.00 72 1014.7
20260510043839 59 0.0 0.0 0.00 0.00 0.00 71 1014.8
20260510042849 59 0.0 0.0 0.00 0.00 0.00 70 1014.7
20260510041750 60 0.0 0.0 0.00 0.00 0.00 69 1014.7
20260510040614 60 0.0 0.0 0.00 0.00 0.00 69 1014.6
20260510035450 61 0.0 0.0 0.00 0.00 0.00 67 1014.6
20260510034459 61 0.0 0.0 0.00 0.00 0.00 66 1014.6
20260510033457 62 0.0 0.0 0.00 0.00 0.00 66 1014.7
20260510032401 63 0.0 0.0 0.00 0.00 0.00 65 1014.9
20260510031356 64 0.0 0.0 0.00 0.00 0.00 63 1014.7
20260510030433 64 0.0 0.0 0.00 0.00 0.00 62 1014.8
20260510025444 65 0.0 0.0 0.00 0.00 0.00 60 1014.7
20260510024320 66 0.0 0.0 0.00 0.00 0.00 56 1014.7
20260510023324 66 0.0 0.0 0.00 0.00 0.00 56 1014.7
20260510022332 67 0.0 0.0 0.00 0.00 0.00 55 1014.8
20260510021349 67 0.0 0.0 0.00 0.00 0.00 54 1015.0
20260510020412 66 0.0 0.0 0.00 0.00 0.00 56 1015.2
20260510015233 66 0.0 0.0 0.00 0.00 0.00 56 1015.2
20260510014059 66 0.0 0.0 0.00 0.00 0.00 56 1015.2
20260510013038 66 0.0 0.0 0.00 0.00 0.00 55 1015.3
20260510012104 66 0.0 0.0 0.00 0.00 0.00 55 1015.4
20260510011120 66 0.0 0.0 0.00 0.00 0.00 55 1015.4
20260510010115 66 0.0 0.0 0.00 0.00 0.00 56 1015.6
20260510005003 66 0.0 0.0 0.00 0.00 0.00 56 1015.7
20260510003838 67 0.0 0.0 0.00 0.00 0.00 55 1015.6
20260510002808 67 0.0 0.0 0.00 0.00 0.00 56 1015.8
20260510001708 67 0.0 0.0 0.00 0.00 0.00 56 1015.8
20260510000635 67 0.0 0.0 0.00 0.00 0.00 56
20260509235528 67 0.0 0.0 0.00 0.00 0.00 55 1016.0
20260509234541 67 0.0 0.0 0.00 0.00 0.00 55 1016.1
20260509233603 67 0.0 0.0 0.00 0.00 0.00 55 1016.3
20260509232614 66 0.0 0.0 0.00 0.00 0.00 55 1016.4
20260509231441 66 0.0 0.0 0.00 0.00 0.00 57 1016.6
20260509230352 66 0.0 0.0 0.00 0.00 0.00 57 1016.6
20260509225430 66 0.0 0.0 0.00 0.00 0.00 57 1016.7
20260509224400 66 0.0 0.0 0.00 0.00 0.00 57 1017.1
20260509223224 66 0.0 0.0 0.00 0.00 0.00 56 1017.0
20260509222239 67 0.0 0.0 0.00 0.00 0.00 55 1017.0
20260509221101 67 0.0 0.0 0.00 0.00 0.00 53 1016.9
20260509220055 67 0.0 0.0 0.00 0.00 0.00 53 1016.9
20260509215055 67 0.0 0.0 0.00 0.00 0.00 52 1017.0
20260509214027 67 0.0 0.0 0.00 0.00 0.00 53 1017.1
20260509212931 67 0.0 0.0 0.00 0.00 0.00 54 1017.3
20260509211841 67 0.0 0.0 0.00 0.00 0.00 55 1017.3
20260509210715 67 0.0 0.0 0.00 0.00 0.00 55 1017.3
20260509205619 67 0.0 0.0 0.00 0.00 0.00 54 1017.3
20260509204655 66 0.0 0.0 0.00 0.00 0.00 55 1017.4
20260509203710 66 0.0 0.0 0.00 0.00 0.00 56 1017.5
20260509202738 65 0.0 0.0 0.00 0.00 0.00 55 1017.8
20260509201615 65 0.0 0.0 0.00 0.00 0.00 56 1018.0
20260509200535 64 0.0 0.0 0.00 0.00 0.00 56 1018.1
20260509195521 64 0.0 0.0 0.00 0.00 0.00 57 1018.5
20260509194415 63 0.0 0.0 0.00 0.00 0.00 58 1018.7
20260509193428 63 0.0 0.0 0.00 0.00 0.00 59 1018.8
20260509192500 62 0.0 0.0 0.00 0.00 0.00 60 1019.1
20260509191434 62 0.0 0.0 0.00 0.00 0.00 61 1019.0
20260509190347 61 0.0 0.0 0.00 0.00 0.00 61 1019.2
20260509185423 61 0.0 0.0 0.00 0.00 0.00 62 1019.3
20260509184451 61 0.0 0.0 0.00 0.00 0.00 64 1019.3
20260509183323 60 0.0 0.0 0.00 0.00 0.00 64 1019.4
20260509182251 60 0.0 0.0 0.00 0.00 0.00 65 1019.6
20260509181316 59 0.0 0.0 0.00 0.00 0.00 66 1019.6
20260509180339 59 0.0 0.0 0.00 0.00 0.00 67 1019.6
20260509175239 58 0.0 0.0 0.00 0.00 0.00 67 1019.7
20260509174306 58 0.0 0.0 0.00 0.00 0.00 68 1019.8
20260509173210 57 0.0 0.0 0.00 0.00 0.00 69 1019.8
20260509172149 56 0.0 0.0 0.00 0.00 0.00 71 1020.0
20260509171054 56 0.0 0.0 0.00 0.00 0.00 72 1020.0
20260509170027 55 0.0 0.0 0.00 0.00 0.00 72 1020.2
20260509165053 55 0.0 0.0 0.00 0.00 0.00 72 1020.3
20260509164136 54 0.0 0.0 0.00 0.00 0.00 74 1020.3
20260509163111 54 0.0 0.0 0.00 0.00 0.00 74 1020.4
20260509162034 53 0.0 0.0 0.00 0.00 0.00 76 1020.4
20260509161028 53 0.0 0.0 0.00 0.00 0.00 78 1020.9
20260509160014 52 0.0 0.0 0.00 0.00 0.00 79 1021.0
20260509154917 52 0.0 0.0 0.00 0.00 0.00 80 1021.0
20260509153954 52 0.0 0.0 0.00 0.00 0.00 80 1021.0
20260509153038 51 0.0 0.0 0.00 0.00 0.00 81 1021.1
20260509152019 51 0.0 0.0 0.00 0.00 0.00 80 1021.2
20260509150933 50 0.0 0.0 0.00 0.00 0.00 81 1021.3
20260509145911 47 0.0 0.0 0.00 0.00 0.00 82 1021.5
20260509144810 47 0.0 0.0 0.00 0.00 0.00 84 1021.8
20260509143655 46 0.0 0.0 0.00 0.00 0.00 84 1021.8
20260509142604 46 0.0 0.0 0.00 0.00 0.00 84 1021.9
20260509141610 46 0.0 0.0 0.00 0.00 0.00 84 1022.0
20260509140609 46 0.0 0.0 0.00 0.00 0.00 86 1022.0
20260509135630 46 0.0 0.0 0.00 0.00 0.00 86 1022.1
20260509134605 45 0.0 0.0 0.00 0.00 0.00 87 1022.2
20260509133436 45 0.0 0.0 0.00 0.00 0.00 87 1022.2
20260509132315 45 0.0 0.0 0.00 0.00 0.00 87 1022.2
20260509131323 45 0.0 0.0 0.00 0.00 0.00 87 1022.1
20260509130320 44 0.0 0.0 0.00 0.00 0.00 87 1022.2
20260509125359 45 0.0 0.0 0.00 0.00 0.00 87 1021.8
20260509124402 45 0.0 0.0 0.00 0.00 0.00 87 1021.9
20260509123416 45 0.0 0.0 0.00 0.00 0.00 87 1021.9